• In Belgien
  • Länderverzeichnis
  • Für 7 Tage
  • Wassertemperatur
  • Satellitenkarten
  • Wetterkarte
  • Widgets
  • user-avatar
    Anmelden

    Stündliche Wetter Kos

    Heute, 21 Oktober, Samstag

    Zeit Temperatur Niederschläge Wind Luftdruck Luftfeuchtigkeit
    00:00 +19°C° 0 mm 4 m/S 765 mmHg 68%
    01:00 +18°C° 0 mm 4 m/S 765 mmHg 69%
    02:00 +18°C° 0 mm 4 m/S 764 mmHg 74%
    03:00 +17°C° 0 mm 4 m/S 764 mmHg 74%
    04:00 +17°C° 0 mm 4 m/S 764 mmHg 73%
    05:00 +17°C° 0 mm 4 m/S 764 mmHg 73%
    06:00 +18°C° 0 mm 4 m/S 764 mmHg 68%
    07:00 +19°C° 0 mm 4 m/S 764 mmHg 63%
    08:00 +21°C° 0 mm 4 m/S 764 mmHg 55%
    09:00 +23°C° 0 mm 4 m/S 764 mmHg 48%
    10:00 +26°C° 0 mm 3 m/S 764 mmHg 41%
    11:00 +28°C° 0 mm 3 m/S 764 mmHg 34%
    12:00 +29°C° 0 mm 4 m/S 764 mmHg 33%
    13:00 +29°C° 0 mm 4 m/S 763 mmHg 31%
    14:00 +29°C° 0 mm 4 m/S 763 mmHg 33%
    15:00 +27°C° 0 mm 4 m/S 763 mmHg 39%
    16:00 +26°C° 0 mm 4 m/S 763 mmHg 44%
    17:00 +23°C° 0 mm 4 m/S 763 mmHg 50%
    18:00 +22°C° 0 mm 4 m/S 763 mmHg 56%
    19:00 +20°C° 0 mm 4 m/S 763 mmHg 62%
    20:00 +19°C° 0 mm 4 m/S 763 mmHg 69%
    21:00 +19°C° 0 mm 4 m/S 763 mmHg 68%
    22:00 +18°C° 0 mm 4 m/S 763 mmHg 67%
    23:00 +18°C° 0 mm 4 m/S 763 mmHg 66%

    Morgen, 22 Oktober, Sonntag

    Zeit Temperatur Niederschläge Wind Luftdruck Luftfeuchtigkeit
    00:00 +18°C° 0 mm 4 m/S 763 mmHg 65%
    01:00 +18°C° 0 mm 4 m/S 763 mmHg 64%
    02:00 +17°C° 0 mm 4 m/S 763 mmHg 63%
    03:00 +17°C° 0 mm 4 m/S 762 mmHg 63%
    04:00 +17°C° 0 mm 4 m/S 762 mmHg 62%
    05:00 +15°C° 0 mm 4 m/S 762 mmHg 62%
    06:00 +18°C° 0 mm 4 m/S 762 mmHg 58%
    07:00 +19°C° 0 mm 4 m/S 762 mmHg 54%
    08:00 +20°C° 0 mm 4 m/S 762 mmHg 50%
    09:00 +22°C° 0 mm 4 m/S 762 mmHg 43%
    10:00 +26°C° 0 mm 4 m/S 763 mmHg 36%
    11:00 +28°C° 0 mm 4 m/S 763 mmHg 29%
    12:00 +29°C° 0 mm 4 m/S 762 mmHg 27%
    13:00 +29°C° 0 mm 4 m/S 762 mmHg 25%
    14:00 +30°C° 0 mm 4 m/S 762 mmHg 22%
    15:00 +28°C° 0 mm 4 m/S 761 mmHg 28%
    16:00 +27°C° 0 mm 4 m/S 761 mmHg 33%
    17:00 +25°C° 0 mm 4 m/S 761 mmHg 38%
    18:00 +22°C° 0 mm 4 m/S 761 mmHg 44%
    19:00 +21°C° 0 mm 4 m/S 761 mmHg 49%
    20:00 +19°C° 0 mm 4 m/S 761 mmHg 55%
    21:00 +19°C° 0 mm 3 m/S 761 mmHg 53%
    22:00 +18°C° 0 mm 3 m/S 761 mmHg 52%
    23:00 +18°C° 0 mm 3 m/S 761 mmHg 51%

    übermorgen, 23 Oktober, Montag

    Zeit Temperatur Niederschläge Wind Luftdruck Luftfeuchtigkeit
    00:00 +18°C° 0 mm 2 m/S 761 mmHg 49%
    01:00 +18°C° 0 mm 2 m/S 761 mmHg 48%
    02:00 +17°C° 0 mm 2 m/S 761 mmHg 46%
    03:00 +17°C° 0 mm 2 m/S 761 mmHg 46%
    04:00 +17°C° 0 mm 2 m/S 760 mmHg 47%
    05:00 +16°C° 0 mm 2 m/S 760 mmHg 47%
    06:00 +18°C° 0 mm 2 m/S 760 mmHg 45%
    07:00 +20°C° 0 mm 1 m/S 760 mmHg 44%
    08:00 +21°C° 0 mm 1 m/S 760 mmHg 42%
    09:00 +23°C° 0 mm 2 m/S 760 mmHg 39%
    10:00 +25°C° 0 mm 2 m/S 760 mmHg 36%
    11:00 +27°C° 0 mm 3 m/S 760 mmHg 33%
    12:00 +27°C° 0 mm 3 m/S 759 mmHg 34%
    13:00 +27°C° 0 mm 3 m/S 759 mmHg 34%
    14:00 +27°C° 0 mm 4 m/S 758 mmHg 35%
    15:00 +26°C° 0 mm 4 m/S 758 mmHg 41%
    16:00 +23°C° 0 mm 4 m/S 758 mmHg 48%
    17:00 +22°C° 0 mm 4 m/S 758 mmHg 55%
    18:00 +21°C° 0 mm 5 m/S 758 mmHg 62%
    19:00 +20°C° 0 mm 5 m/S 758 mmHg 68%
    20:00 +19°C° 0 mm 6 m/S 758 mmHg 75%
    21:00 +18°C° 0,1 mm 7 m/S 758 mmHg 76%
    22:00 +18°C° 0,1 mm 7 m/S 757 mmHg 77%
    23:00 +18°C° 0,1 mm 8 m/S 757 mmHg 78%

    24 Oktober, Dienstag

    Zeit Temperatur Niederschläge Wind Luftdruck Luftfeuchtigkeit
    00:00 +18°C° 0,4 mm 8 m/S 757 mmHg 77%
    01:00 +20°C° 0,4 mm 8 m/S 757 mmHg 77%
    02:00 +20°C° 0,4 mm 8 m/S 756 mmHg 76%
    03:00 +18°C° 0,9 mm 8 m/S 756 mmHg 80%
    04:00 +18°C° 0,9 mm 8 m/S 756 mmHg 84%
    05:00 +17°C° 0,9 mm 8 m/S 755 mmHg 88%
    06:00 +18°C° 1,1 mm 8 m/S 755 mmHg 85%
    07:00 +20°C° 1,1 mm 8 m/S 755 mmHg 82%
    08:00 +20°C° 1,1 mm 8 m/S 755 mmHg 79%
    09:00 +21°C° 1,2 mm 8 m/S 755 mmHg 76%
    10:00 +22°C° 1,2 mm 7 m/S 755 mmHg 74%
    11:00 +22°C° 1,2 mm 7 m/S 755 mmHg 72%
    12:00 +22°C° 1,6 mm 7 m/S 755 mmHg 75%
    13:00 +21°C° 1,6 mm 7 m/S 755 mmHg 78%
    14:00 +21°C° 1,6 mm 7 m/S 755 mmHg 80%
    15:00 +20°C° 1,3 mm 7 m/S 755 mmHg 82%
    16:00 +20°C° 1,3 mm 6 m/S 755 mmHg 84%
    17:00 +19°C° 1,3 mm 6 m/S 755 mmHg 86%
    18:00 +19°C° 1,5 mm 6 m/S 755 mmHg 86%
    19:00 +19°C° 1,5 mm 6 m/S 755 mmHg 86%
    20:00 +19°C° 1,5 mm 6 m/S 756 mmHg 86%
    21:00 +17°C° 0,5 mm 5 m/S 756 mmHg 88%
    22:00 +17°C° 0,5 mm 5 m/S 756 mmHg 89%
    23:00 +18°C° 0,5 mm 4 m/S 757 mmHg 90%

    25 Oktober, Mittwoch

    Zeit Temperatur Niederschläge Wind Luftdruck Luftfeuchtigkeit
    00:00 +17°C° 0,8 mm 4 m/S 757 mmHg 90%
    01:00 +16°C° 0,8 mm 5 m/S 757 mmHg 90%
    02:00 +16°C° 0,8 mm 5 m/S 757 mmHg 90%
    03:00 +16°C° 0,5 mm 5 m/S 757 mmHg 90%
    04:00 +16°C° 0,5 mm 5 m/S 757 mmHg 90%
    05:00 +15°C° 0,5 mm 6 m/S 758 mmHg 90%
    06:00 +16°C° 0,7 mm 6 m/S 758 mmHg 88%
    07:00 +16°C° 0,7 mm 6 m/S 758 mmHg 86%
    08:00 +17°C° 0,7 mm 6 m/S 759 mmHg 84%
    09:00 +19°C° 0,6 mm 6 m/S 759 mmHg 76%
    10:00 +20°C° 0,6 mm 6 m/S 760 mmHg 69%
    11:00 +21°C° 0,6 mm 6 m/S 760 mmHg 61%
    12:00 +21°C° 0,8 mm 6 m/S 760 mmHg 60%
    13:00 +21°C° 0,8 mm 5 m/S 760 mmHg 59%
    14:00 +21°C° 0,8 mm 5 m/S 760 mmHg 59%
    15:00 +20°C° 0,2 mm 5 m/S 761 mmHg 62%
    16:00 +20°C° 0,2 mm 4 m/S 761 mmHg 65%
    17:00 +19°C° 0,2 mm 4 m/S 761 mmHg 69%
    18:00 +19°C° 0 mm 4 m/S 762 mmHg 70%
    19:00 +18°C° 0 mm 4 m/S 762 mmHg 71%
    20:00 +18°C° 0 mm 4 m/S 763 mmHg 73%
    21:00 +17°C° 0,1 mm 4 m/S 763 mmHg 74%
    22:00 +17°C° 0,1 mm 4 m/S 763 mmHg 75%
    23:00 +17°C° 0,1 mm 4 m/S 764 mmHg 77%

    26 Oktober, Donnerstag

    Zeit Temperatur Niederschläge Wind Luftdruck Luftfeuchtigkeit
    00:00 +15°C° 0 mm 4 m/S 764 mmHg 78%
    01:00 +15°C° 0 mm 4 m/S 764 mmHg 79%
    02:00 +15°C° 0 mm 4 m/S 764 mmHg 80%
    03:00 +14°C° 0,1 mm 4 m/S 764 mmHg 81%
    04:00 +14°C° 0,1 mm 4 m/S 765 mmHg 81%
    05:00 +14°C° 0,1 mm 4 m/S 765 mmHg 81%
    06:00 +14°C° 0 mm 4 m/S 765 mmHg 78%
    07:00 +15°C° 0 mm 4 m/S 765 mmHg 74%
    08:00 +17°C° 0 mm 4 m/S 766 mmHg 71%
    09:00 +18°C° 0 mm 4 m/S 766 mmHg 64%
    10:00 +20°C° 0 mm 3 m/S 766 mmHg 57%
    11:00 +22°C° 0 mm 3 m/S 766 mmHg 49%
    12:00 +24°C° 0 mm 3 m/S 766 mmHg 47%
    13:00 +24°C° 0 mm 3 m/S 766 mmHg 46%
    14:00 +25°C° 0 mm 3 m/S 765 mmHg 44%
    15:00 +24°C° 0 mm 3 m/S 765 mmHg 48%
    16:00 +22°C° 0 mm 3 m/S 765 mmHg 53%
    17:00 +21°C° 0 mm 4 m/S 765 mmHg 57%
    18:00 +20°C° 0 mm 4 m/S 765 mmHg 61%
    19:00 +19°C° 0 mm 4 m/S 765 mmHg 65%
    20:00 +18°C° 0 mm 4 m/S 765 mmHg 69%
    21:00 +17°C° 0 mm 4 m/S 765 mmHg 71%
    22:00 +17°C° 0 mm 4 m/S 765 mmHg 73%
    23:00 +15°C° 0 mm 4 m/S 765 mmHg 76%
    Mehr zeigen